Regional Weather Roundup
Issued by NWS Glasgow, MT

Home | Current Version | Previous Version | Text Only | Print | Product List | Glossary On
Versions: 1 2 3 4 5 6 7 8 9 10 11 12 13 14 15 16 17 18 19 20 21 22 23 24 25 26 27
000
ASUS45 KGGW 260715
RWRGGW
HOURLY REGIONAL WEATHER ROUNDUP FOR NORTHEAST MONTANA
NATIONAL WEATHER SERVICE GLASGOW MONTANA
100 AM MDT THU MAY 26 2016

NOTE: "FAIR" INDICATES FEW OR NO CLOUDS BELOW 12,000 FEET WITH NO
SIGNIFICANT WEATHER AND/OR OBSTRUCTIONS TO VISISBILITY.

NORTHEAST MONTANA


CITY           SKY/WX    TMP DP  RH WIND       PRES   REMARKS
GLASGOW        PTCLDY    47  42  83 W7        29.83F
PLENTYWOOD       N/A     48  46  93 W5          N/A
WOLF POINT     PTCLDY    46  43  89 SW3       29.84R
JORDAN           N/A     50  45  83 NW7       29.85F
WINNETT          N/A     45  41  86 W3G12       N/A
SIDNEY         CLEAR     48  45  87 NW3       29.83R
GLENDIVE       CLOUDY    52  48  87 SW7       29.86S
MALTA            N/A     46  45  96 SW5         N/A
SCOBEY           N/A     48  41  76 N7        29.82F
OPHEIM           N/A     43  41  93 N5        29.71R

FORT PECK REPORTS


CITY           SKY/WX    TMP DP  RH WIND       PRES   REMARKS
FORT PECK        N/A     52  46  80 NW12G20     N/A
THE PINES        N/A     50  45  83 SW5         N/A

SOUTHEAST MONTANA


CITY           SKY/WX    TMP DP  RH WIND       PRES   REMARKS
BILLINGS       MOCLDY    51  42  71 W13       29.94R
MILES CITY     CLOUDY    53  46  77 NW12      29.86S
BAKER          CLEAR     47  43  86 W7        29.87S
LIVINGSTON     CLOUDY    49  38  65 W6        29.98S

CENTRAL MONTANA


CITY           SKY/WX    TMP DP  RH WIND       PRES   REMARKS
HAVRE            N/A    N/A N/A N/A MISG      29.90R
LEWISTOWN      CLEAR     44  39  82 W3        29.92F
GREAT FALLS    PTCLDY    45  42  89 SW10      29.94R
CUT BANK       PTCLDY    47  40  76 N3        29.94S
HELENA         CLEAR     49  44  83 SE3       29.97R
BUTTE          CLOUDY    41  35  79 CALM      30.06R
BOZEMAN        CLOUDY    50  42  74 CALM      30.00R

WESTERN MONTANA


CITY           SKY/WX    TMP DP  RH WIND       PRES   REMARKS
MISSOULA       PTCLDY    51  45  79 SE3       30.04R
KALISPELL      NOT AVBL

NORTH DAKOTA


CITY           SKY/WX    TMP DP  RH WIND       PRES   REMARKS
WILLISTON      PTCLDY    46  45  96 S7        29.81S
DICKINSON      CLEAR     42  39  89 W6        29.81R
MINOT          CLOUDY    58  55  90 SW12      29.74R
BISMARCK       CLEAR     50  48  93 W6        29.80R

SOUTHERN SASKATCHEWAN


CITY           SKY/WX    TMP DP  RH WIND       PRES   REMARKS
REGINA         LGT RAIN  52  50  93 N8        29.83F
MOOSE JAW      LGT RAIN  52  52 100 NE9       29.85F FOG
ESTEVAN        LGT RAIN  54  54 100 N6        29.76F
SWIFT CURRENT  LGT RAIN  50  50 100 NE2       29.88S





USA.gov is the U.S. government's official web portal to all federal, state and local government web resources and services.